DW6536 Weather Reports


time (UTC)temp
F
wind
direction
speed
knots
gust
knots
rain 1hr
in
rain 24hr
in
rain mn
in
humidity
%
barometer
mb
20260905060015 80 188 0.0 0.0 0.00 0.00 0.00 78 1011.3
20260905054516 80 137 0.0 0.0 0.00 0.00 0.00 77 1011.3
20260905053013 80 143 0.9 0.0 0.00 0.00 0.00 77 1011.2
20260905051513 81 136 0.9 0.0 0.00 0.00 0.00 76 1011.4
20260905050009 81 131 0.9 0.0 0.00 0.00 0.00 75 1011.4
20260905044510 81 163 0.9 0.0 0.00 0.00 0.00 74 1011.4
20260905043007 82 134 0.9 0.0 0.00 0.00 0.00 73 1011.3
20260905041508 82 172 0.9 0.0 0.00 0.00 0.00 73 1011.4
20260905040007 82 154 0.9 0.0 0.00 0.00 0.00 72 1011.3
20260905034510 82 104 1.7 0.0 0.00 0.00 0.00 71 1011.2
20260905033006 82 134 0.9 0.0 0.00 0.00 0.00 70 1011.1
20260905031505 82 122 0.0 0.0 0.00 0.00 0.00 70 1011.2
20260905030007 83 141 0.0 0.0 0.00 0.00 0.00 71 1010.9
20260905024508 83 117 0.9 0.0 0.00 0.00 0.00 71 1010.7
20260905023010 84 142 0.9 0.0 0.00 0.00 0.00 70 1010.6
20260905021506 84 117 0.9 0.0 0.00 0.00 0.00 70 1010.3
20260905020003 84 149 0.9 0.0 0.00 0.00 0.00 69 1010.3
20260905014503 85 141 1.7 0.0 0.00 0.00 0.00 68 1010.2
20260905013002 85 212 0.9 0.0 0.00 0.00 0.00 67 1010.2
20260905011501 86 133 0.9 0.0 0.00 0.00 0.00 65 1010.0
20260905010003 86 148 0.9 0.0 0.00 0.00 0.00 64 1009.9
20260905004631 86 128 0.9 0.0 0.00 0.00 0.00 64 1009.8
20260905003059 87 131 1.7 0.0 0.00 0.00 0.00 65 1009.5
20260905001559 87 183 2.6 0.0 0.00 0.00 0.00 64 1009.4
20260905000058 88 162 3.5 0.0 0.00 0.00 0.00 62 1009.4
20260904234558 90 122 2.6 0.0 0.00 0.00 0.00 60 1009.2
20260904233057 91 182 2.6 0.0 0.00 0.00 0.00 57 1009.1
20260904231557 93 118 3.5 0.0 0.00 0.00 0.00 54 1009.1
20260904230127 93 221 2.6 0.0 0.00 0.00 0.00 45 1009.3
20260904224601 94 230 2.6 0.0 0.00 0.00 0.00 42 1009.3
20260904223053 95 113 1.7 0.0 0.00 0.00 0.00 42 1009.4
20260904221553 95 147 1.7 0.0 0.00 0.00 0.00 42 1009.4
20260904220054 96 153 0.9 0.0 0.00 0.00 0.00 42 1009.4
20260904214549 95 222 1.7 0.0 0.00 0.00 0.00 41 1009.7
20260904213050 95 128 1.7 0.0 0.00 0.00 0.00 44 1009.9
20260904211543 94 197 1.7 0.0 0.00 0.00 0.00 47 1010.0
20260904210042 94 193 1.7 0.0 0.00 0.00 0.00 45 1010.1
20260904204540 92 180 2.6 0.0 0.00 0.00 0.00 48 1010.4
20260904203039 91 121 2.6 0.0 0.00 0.00 0.00 48 1010.5
20260904201538 93 257 2.6 0.0 0.00 0.00 0.00 51 1010.7
20260904200035 92 124 1.7 0.0 0.00 0.00 0.00 56 1010.9
20260904194531 91 133 2.6 0.0 0.00 0.00 0.00 62 1011.0
20260904193036 90 141 2.6 0.0 0.00 0.00 0.00 65 1011.2
20260904191527 88 148 2.6 0.0 0.00 0.00 0.00 68 1011.4
20260904190037 87 148 2.6 0.0 0.00 0.00 0.00 67 1011.7
20260904184528 88 120 1.7 0.0 0.00 0.00 0.00 67 1011.7
20260904183024 88 169 1.7 0.0 0.00 0.00 0.00 68 1011.8
20260904181524 88 112 1.7 0.0 0.00 0.00 0.00 65 1011.9
20260904180024 88 106 1.7 0.0 0.00 0.00 0.00 64 1012.0
20260904174523 89 174 0.9 0.0 0.00 0.00 0.00 67 1012.2
20260904173022 87 159 1.7 0.0 0.00 0.00 0.00 67 1012.3
20260904171520 87 228 1.7 0.0 0.00 0.00 0.00 69 1012.3
20260904170018 87 108 2.6 0.0 0.00 0.00 0.00 69 1012.5
20260904164517 87 162 1.7 0.0 0.00 0.00 0.00 69 1012.3
20260904163016 85 164 0.9 0.0 0.00 0.00 0.00 71 1012.3
20260904161513 86 291 1.7 0.0 0.00 0.00 0.00 71 1012.3
20260904160013 85 251 0.9 0.0 0.00 0.00 0.00 74 1012.2
20260904154509 84 207 0.9 0.0 0.00 0.00 0.00 76 1012.2
20260904153006 83 174 1.7 0.0 0.00 0.00 0.00 78 1012.1
20260904151504 83 212 1.7 0.0 0.00 0.00 0.00 78 1011.9
20260904150014 82 207 0.9 0.0 0.00 0.00 0.00 79 1011.9
20260904144601 81 106 0.9 0.0 0.00 0.00 0.00 81 1011.9
20260904143058 81 216 0.9 0.0 0.00 0.00 0.00 81 1011.9
20260904141558 81 192 1.7 0.0 0.00 0.00 0.00 82 1011.8
20260904140105 80 168 0.9 0.0 0.00 0.00 0.00 84 1011.8
20260904134554 80 205 0.9 0.0 0.00 0.00 0.00 85 1011.7
20260904133054 79 201 0.9 0.0 0.00 0.00 0.00 86 1011.9
20260904131553 79 164 0.9 0.0 0.00 0.00 0.00 86 1011.8
20260904130103 79 180 0.0 0.0 0.00 0.00 0.00 86 1011.9
20260904124557 79 116 0.0 0.0 0.00 0.00 0.00 87 1011.8
20260904123051 79 162 0.9 0.0 0.00 0.00 0.00 87 1011.7
20260904121548 79 155 0.9 0.0 0.00 0.00 0.00 86 1011.3
20260904120104 79 118 0.9 0.0 0.00 0.00 0.00 86 1011.1
20260904114543 79 143 1.7 0.0 0.00 0.00 0.00 85 1010.8
20260904113042 79 114 1.7 0.0 0.00 0.00 0.00 85 1010.8
20260904111540 79 150 0.9 0.0 0.00 0.00 0.00 85 1010.5
20260904110042 79 333 0.9 0.0 0.00 0.00 0.00 85 1010.5
20260904104537 79 132 1.7 0.0 0.00 0.00 0.00 85 1010.4
20260904103037 79 199 0.9 0.0 0.00 0.00 0.00 84 1010.3
20260904101535 79 139 0.9 0.0 0.00 0.00 0.00 84 1010.2
20260904100034 79 161 0.9 0.0 0.00 0.00 0.00 84 1010.2
20260904094535 79 137 0.9 0.0 0.00 0.00 0.00 84 1010.1
20260904093037 80 133 0.9 0.0 0.00 0.00 0.00 83 1010.0
20260904091532 80 205 0.9 0.0 0.00 0.00 0.00 83 1010.1
20260904090033 80 228 0.0 0.0 0.00 0.00 0.00 83 1010.1
20260904084532 80 158 0.9 0.0 0.00 0.00 0.00 83 1010.1
20260904083036 80 165 0.9 0.0 0.00 0.00 0.00 83 1010.1
20260904081537 80 210 0.9 0.0 0.00 0.00 0.00 83 1010.1
20260904080029 80 114 0.9 0.0 0.00 0.00 0.00 82 1010.1
20260904074528 80 176 1.7 0.0 0.00 0.00 0.00 82 1010.2
20260904073028 80 141 1.7 0.0 0.00 0.00 0.00 82 1010.2
20260904071525 80 207 1.7 0.0 0.00 0.00 0.00 81 1010.3
20260904070026 80 185 2.6 0.0 0.00 0.00 0.00 81 1010.5
20260904064525 80 168 0.9 0.0 0.00 0.00 0.00 80 1010.5
20260904063025 80 130 2.6 0.0 0.00 0.00 0.00 80 1010.5
20260904061538 80 124 1.7 0.0 0.00 0.00 0.00 80 1010.4